Find Kosmos-1692

NORAD ID: 16140 Int'l Des: 1985-094 Owner: GUKOS Country: SU operational
LEOCIRCULARPOLAR

Current View

Loading 3D Globe...

About Kosmos-1692

Kosmos-1692 (NORAD 16140) is a satellite launched Oct 9, 1985 by GUKOS of SU. It operates in LEO, CIRCULAR, POLAR orbit with a mass of 225.00 kg.

Upcoming Passes

Passes for default location (London). Set your location on the main map for personalized predictions.

Altitude History

Loading altitude history...

Two-Line Element Set

1 16140U 85094C 26193.85771162 .00000028 00000-0 96103-4 0 9999
2 16140 82.5985 214.0484 0016745 310.6294 165.2756 12.64914946881625
Epoch: Jul 12, 2026 • Age: 30 hours

Current Status

Altitude 1397.6 km
Apogee / Perigee N/A
Velocity 7.17 km/s
Sub-Earth Point -8.70°S, 114.36°W
Launch Date Oct 9, 1985
Age 40.7 years
Type other

Technical Details

Classification Payload
Mass 225.00 kg
Dry Mass 225.00 kg
Total Mass 225.00 kg
Length 1.60 m
Diameter 0.80 m
Span 7.00 m
Shape Cyl + Ant
Manufacturer NPOPM
Bus Type Strela-3
Phase Status In Orbit
Owner/State GUKOS/SU

Most Searched